Tabellarische Ansicht des 18.2.2010


Die einzelnen Werte des Tages

Uhrzeit Temperatur Luftdruck Luftfeuchte Wind Hi-Wind Taupunkt THW Index Wind Chill Heat Index Solar- strahlung Regen

00:00

1.7 C

991.8 hpa

83 %

8.0 km/h aus 117

16.1 km/h aus ENE

-0.9 C

-0.9 C

-0.8 C

1.6 C

0 W/m

0.00 mm

00:05

1.7 C

991.8 hpa

83 %

6.4 km/h aus 115

16.1 km/h aus ENE

-0.9 C

-0.4 C

-0.3 C

1.6 C

0 W/m

0.00 mm

00:10

1.7 C

991.8 hpa

83 %

6.4 km/h aus 117

12.9 km/h aus ENE

-0.9 C

-0.3 C

-0.2 C

1.6 C

0 W/m

0.00 mm

00:15

1.8 C

992.2 hpa

83 %

6.4 km/h aus 117

11.3 km/h aus NE

-0.8 C

-0.2 C

-0.1 C

1.7 C

0 W/m

0.00 mm

00:20

1.8 C

992.2 hpa

82 %

6.4 km/h aus 117

16.1 km/h aus NE

-0.9 C

-0.2 C

-0.1 C

1.7 C

0 W/m

0.00 mm

00:25

1.8 C

992.2 hpa

82 %

4.8 km/h aus 117

11.3 km/h aus NE

-0.9 C

0.4 C

0.6 C

1.7 C

0 W/m

0.00 mm

00:30

1.8 C

991.9 hpa

82 %

6.4 km/h aus 118

14.5 km/h aus NE

-0.9 C

-0.2 C

-0.1 C

1.7 C

0 W/m

0.00 mm

00:35

1.9 C

991.9 hpa

82 %

6.4 km/h aus 117

9.7 km/h aus ENE

-0.9 C

-0.2 C

0.0 C

1.7 C

0 W/m

0.00 mm

00:40

1.9 C

991.9 hpa

82 %

4.8 km/h aus 116

9.7 km/h aus E

-0.9 C

0.5 C

0.7 C

1.7 C

0 W/m

0.00 mm

00:45

1.9 C

991.9 hpa

82 %

6.4 km/h aus 117

9.7 km/h aus E

-0.9 C

-0.2 C

0.0 C

1.7 C

0 W/m

0.00 mm

00:50

1.9 C

991.9 hpa

82 %

6.4 km/h aus 117

11.3 km/h aus E

-0.9 C

-0.2 C

0.0 C

1.7 C

0 W/m

0.00 mm

00:55

1.9 C

991.9 hpa

82 %

4.8 km/h aus 116

11.3 km/h aus E

-0.8 C

0.6 C

0.7 C

1.8 C

0 W/m

0.00 mm

01:00

1.9 C

991.8 hpa

82 %

6.4 km/h aus 117

9.7 km/h aus ESE

-0.8 C

-0.1 C

0.1 C

1.8 C

0 W/m

0.00 mm

01:05

1.9 C

991.8 hpa

82 %

4.8 km/h aus 117

8.0 km/h aus ESE

-0.9 C

0.5 C

0.7 C

1.7 C

0 W/m

0.00 mm

01:10

1.9 C

991.8 hpa

82 %

4.8 km/h aus 116

8.0 km/h aus ESE

-0.9 C

0.5 C

0.7 C

1.7 C

0 W/m

0.00 mm

01:15

1.9 C

991.7 hpa

82 %

4.8 km/h aus 116

8.0 km/h aus ESE

-0.9 C

0.5 C

0.7 C

1.7 C

0 W/m

0.00 mm

01:20

1.9 C

991.7 hpa

82 %

9.7 km/h aus 115

19.3 km/h aus E

-0.8 C

-1.1 C

-0.9 C

1.8 C

0 W/m

0.00 mm

01:25

1.9 C

991.7 hpa

82 %

8.0 km/h aus 117

17.7 km/h aus ESE

-0.8 C

-0.6 C

-0.4 C

1.8 C

0 W/m

0.00 mm

01:30

2.0 C

991.8 hpa

81 %

6.4 km/h aus 117

14.5 km/h aus ESE

-0.9 C

-0.1 C

0.1 C

1.8 C

0 W/m

0.00 mm

01:35

2.0 C

991.8 hpa

81 %

6.4 km/h aus 116

14.5 km/h aus SE

-0.9 C

-0.1 C

0.1 C

1.8 C

0 W/m

0.00 mm

01:40

2.0 C

991.8 hpa

81 %

8.0 km/h aus 117

16.1 km/h aus SE

-0.9 C

-0.6 C

-0.4 C

1.8 C

0 W/m

0.00 mm

01:45

2.1 C

991.6 hpa

81 %

9.7 km/h aus 117

17.7 km/h aus E

-0.9 C

-0.9 C

-0.8 C

1.9 C

0 W/m

0.00 mm

01:50

2.1 C

991.6 hpa

81 %

8.0 km/h aus 117

14.5 km/h aus ESE

-0.9 C

-0.5 C

-0.3 C

1.9 C

0 W/m

0.00 mm

01:55

2.1 C

991.6 hpa

80 %

8.0 km/h aus 117

16.1 km/h aus SSE

-1.0 C

-0.4 C

-0.3 C

1.9 C

0 W/m

0.00 mm

02:00

2.2 C

991.5 hpa

80 %

8.0 km/h aus 115

16.1 km/h aus E

-0.9 C

-0.3 C

-0.2 C

2.0 C

0 W/m

0.00 mm

02:05

2.2 C

991.5 hpa

80 %

8.0 km/h aus 117

17.7 km/h aus E

-0.9 C

-0.3 C

-0.2 C

2.0 C

0 W/m

0.00 mm

02:10

2.2 C

991.5 hpa

80 %

6.4 km/h aus 115

16.1 km/h aus ESE

-0.9 C

0.2 C

0.3 C

2.0 C

0 W/m

0.00 mm

02:15

2.2 C

991.7 hpa

80 %

8.0 km/h aus 116

17.7 km/h aus ESE

-0.9 C

-0.3 C

-0.2 C

2.0 C

0 W/m

0.00 mm

02:20

2.2 C

991.7 hpa

80 %

9.7 km/h aus 116

22.5 km/h aus SSE

-0.9 C

-0.8 C

-0.6 C

2.0 C

0 W/m

0.00 mm

02:25

2.2 C

991.7 hpa

80 %

9.7 km/h aus 116

19.3 km/h aus SE

-0.9 C

-0.8 C

-0.6 C

2.0 C

0 W/m

0.00 mm

02:30

2.2 C

991.8 hpa

80 %

9.7 km/h aus 116

19.3 km/h aus E

-0.9 C

-0.7 C

-0.6 C

2.1 C

0 W/m

0.00 mm

02:35

2.2 C

991.8 hpa

79 %

8.0 km/h aus 116

14.5 km/h aus SE

-1.0 C

-0.3 C

-0.1 C

2.1 C

0 W/m

0.00 mm

02:40

2.2 C

991.8 hpa

79 %

8.0 km/h aus 118

16.1 km/h aus ESE

-1.0 C

-0.3 C

-0.1 C

2.1 C

0 W/m

0.00 mm

02:45

2.2 C

991.7 hpa

79 %

8.0 km/h aus 117

16.1 km/h aus ESE

-1.0 C

-0.3 C

-0.1 C

2.1 C

0 W/m

0.00 mm

02:50

2.2 C

991.7 hpa

80 %

8.0 km/h aus 117

19.3 km/h aus SE

-0.9 C

-0.3 C

-0.2 C

2.0 C

0 W/m

0.00 mm

02:55

2.2 C

991.7 hpa

79 %

6.4 km/h aus 117

16.1 km/h aus ESE

-1.1 C

0.2 C

0.3 C

2.0 C

0 W/m

0.00 mm

03:00

2.2 C

991.7 hpa

79 %

6.4 km/h aus 117

20.9 km/h aus SE

-1.1 C

0.2 C

0.3 C

2.0 C

0 W/m

0.00 mm

03:05

2.2 C

991.7 hpa

79 %

4.8 km/h aus 117

9.7 km/h aus ESE

-1.1 C

0.8 C

0.9 C

2.0 C

0 W/m

0.00 mm

03:10

2.2 C

991.7 hpa

79 %

4.8 km/h aus 117

14.5 km/h aus ESE

-1.0 C

0.8 C

1.0 C

2.1 C

0 W/m

0.00 mm

03:15

2.2 C

991.5 hpa

79 %

4.8 km/h aus 117

9.7 km/h aus E

-1.0 C

0.8 C

1.0 C

2.1 C

0 W/m

0.00 mm

03:20

2.2 C

991.5 hpa

79 %

3.2 km/h aus 115

6.4 km/h aus ESE

-1.1 C

1.7 C

1.8 C

2.0 C

0 W/m

0.00 mm

03:25

2.2 C

991.5 hpa

79 %

3.2 km/h aus 117

9.7 km/h aus ESE

-1.0 C

1.7 C

1.9 C

2.1 C

0 W/m

0.00 mm

03:30

2.2 C

991.4 hpa

79 %

8.0 km/h aus 117

17.7 km/h aus ESE

-1.0 C

-0.3 C

-0.1 C

2.1 C

0 W/m

0.00 mm

03:35

2.2 C

991.4 hpa

79 %

6.4 km/h aus 117

14.5 km/h aus ESE

-1.0 C

0.2 C

0.4 C

2.1 C

0 W/m

0.00 mm

03:40

2.3 C

991.4 hpa

79 %

8.0 km/h aus 117

16.1 km/h aus ESE

-1.0 C

-0.2 C

-0.1 C

2.1 C

0 W/m

0.00 mm

03:45

2.2 C

991.4 hpa

79 %

9.7 km/h aus 117

19.3 km/h aus SE

-1.0 C

-0.7 C

-0.6 C

2.1 C

0 W/m

0.00 mm

03:50

2.2 C

991.4 hpa

80 %

9.7 km/h aus 116

16.1 km/h aus SE

-0.9 C

-0.8 C

-0.6 C

2.0 C

0 W/m

0.00 mm

03:55

2.2 C

991.4 hpa

80 %

6.4 km/h aus 116

16.1 km/h aus ESE

-0.9 C

0.2 C

0.3 C

2.0 C

0 W/m

0.00 mm

04:00

2.1 C

991.4 hpa

80 %

6.4 km/h aus 116

11.3 km/h aus SE

-1.0 C

0.1 C

0.3 C

1.9 C

0 W/m

0.00 mm

04:05

2.2 C

991.4 hpa

80 %

8.0 km/h aus 116

14.5 km/h aus SE

-0.9 C

-0.3 C

-0.2 C

2.0 C

0 W/m

0.00 mm

04:10

2.2 C

991.4 hpa

80 %

6.4 km/h aus 117

16.1 km/h aus SE

-0.9 C

0.2 C

0.3 C

2.0 C

0 W/m

0.00 mm

04:15

2.2 C

991.3 hpa

80 %

8.0 km/h aus 117

16.1 km/h aus SE

-0.9 C

-0.3 C

-0.2 C

2.0 C

0 W/m

0.00 mm

04:20

2.1 C

991.3 hpa

80 %

9.7 km/h aus 116

17.7 km/h aus SSE

-1.0 C

-0.8 C

-0.7 C

1.9 C

0 W/m

0.00 mm

04:25

2.1 C

991.3 hpa

80 %

8.0 km/h aus 116

16.1 km/h aus SE

-1.0 C

-0.4 C

-0.3 C

1.9 C

0 W/m

0.00 mm

04:30

2.1 C

991.2 hpa

80 %

8.0 km/h aus 117

11.3 km/h aus ESE

-1.0 C

-0.4 C

-0.3 C

1.9 C

0 W/m

0.00 mm

04:35

2.2 C

991.2 hpa

81 %

8.0 km/h aus 117

14.5 km/h aus ESE

-0.8 C

-0.3 C

-0.2 C

2.0 C

0 W/m

0.00 mm

04:40

2.1 C

991.2 hpa

81 %

6.4 km/h aus 117

9.7 km/h aus ESE

-0.8 C

0.1 C

0.3 C

1.9 C

0 W/m

0.00 mm

04:45

2.1 C

991.2 hpa

81 %

6.4 km/h aus 117

9.7 km/h aus E

-0.9 C

0.1 C

0.2 C

1.9 C

0 W/m

0.00 mm

04:50

2.1 C

991.2 hpa

81 %

4.8 km/h aus 116

9.7 km/h aus ESE

-0.9 C

0.7 C

0.8 C

1.9 C

0 W/m

0.00 mm

04:55

2.0 C

991.2 hpa

82 %

3.2 km/h aus 117

8.0 km/h aus ESE

-0.8 C

1.4 C

1.6 C

1.8 C

0 W/m

0.00 mm

05:00

2.0 C

991.2 hpa

82 %

3.2 km/h aus 117

9.7 km/h aus ESE

-0.8 C

1.4 C

1.6 C

1.8 C

0 W/m

0.00 mm

05:05

2.1 C

991.2 hpa

82 %

3.2 km/h aus 117

8.0 km/h aus ESE

-0.7 C

1.5 C

1.7 C

1.9 C

0 W/m

0.00 mm

05:10

2.1 C

991.2 hpa

82 %

4.8 km/h aus 117

9.7 km/h aus ESE

-0.7 C

0.7 C

0.8 C

1.9 C

0 W/m

0.00 mm

05:15

1.9 C

991.1 hpa

82 %

6.4 km/h aus 116

11.3 km/h aus ESE

-0.8 C

-0.1 C

0.1 C

1.8 C

0 W/m

0.00 mm

05:20

1.9 C

991.1 hpa

83 %

4.8 km/h aus 117

9.7 km/h aus ESE

-0.6 C

0.6 C

0.7 C

1.8 C

0 W/m

0.00 mm

05:25

2.0 C

991.1 hpa

82 %

6.4 km/h aus 116

16.1 km/h aus ESE

-0.8 C

-0.1 C

0.1 C

1.8 C

0 W/m

0.00 mm

05:30

2.1 C

991.2 hpa

83 %

6.4 km/h aus 117

11.3 km/h aus ESE

-0.5 C

0.1 C

0.2 C

1.9 C

0 W/m

0.00 mm

05:35

2.1 C

991.2 hpa

82 %

6.4 km/h aus 117

16.1 km/h aus ESE

-0.7 C

0.1 C

0.2 C

1.9 C

0 W/m

0.00 mm

05:40

2.1 C

991.2 hpa

82 %

4.8 km/h aus 117

11.3 km/h aus ESE

-0.6 C

0.7 C

0.9 C

1.9 C

0 W/m

0.00 mm

05:45

2.1 C

991.2 hpa

82 %

8.0 km/h aus 117

14.5 km/h aus ESE

-0.6 C

-0.4 C

-0.3 C

1.9 C

0 W/m

0.00 mm

05:50

2.1 C

991.2 hpa

83 %

9.7 km/h aus 116

16.1 km/h aus ESE

-0.5 C

-0.9 C

-0.8 C

1.9 C

0 W/m

0.00 mm

05:55

2.1 C

991.2 hpa

83 %

9.7 km/h aus 117

16.1 km/h aus ESE

-0.5 C

-0.8 C

-0.7 C

2.0 C

0 W/m

0.00 mm

06:00

2.2 C

991.2 hpa

82 %

8.0 km/h aus 117

17.7 km/h aus SE

-0.6 C

-0.3 C

-0.2 C

2.0 C

0 W/m

0.00 mm

06:05

2.2 C

991.2 hpa

82 %

8.0 km/h aus 116

14.5 km/h aus ESE

-0.6 C

-0.3 C

-0.2 C

2.0 C

0 W/m

0.00 mm

06:10

2.2 C

991.2 hpa

82 %

8.0 km/h aus 117

14.5 km/h aus ESE

-0.6 C

-0.3 C

-0.2 C

2.0 C

0 W/m

0.00 mm

06:15

2.2 C

991.2 hpa

83 %

8.0 km/h aus 116

11.3 km/h aus ESE

-0.4 C

-0.3 C

-0.2 C

2.1 C

0 W/m

0.00 mm

06:20

2.1 C

991.2 hpa

83 %

8.0 km/h aus 117

11.3 km/h aus ESE

-0.5 C

-0.4 C

-0.3 C

2.0 C

0 W/m

0.00 mm

06:25

2.1 C

991.2 hpa

83 %

8.0 km/h aus 117

16.1 km/h aus ESE

-0.5 C

-0.4 C

-0.3 C

2.0 C

0 W/m

0.00 mm

06:30

2.2 C

991.2 hpa

83 %

8.0 km/h aus 117

14.5 km/h aus SE

-0.4 C

-0.3 C

-0.2 C

2.1 C

0 W/m

0.00 mm

06:35

2.2 C

991.2 hpa

83 %

8.0 km/h aus 117

12.9 km/h aus ESE

-0.4 C

-0.3 C

-0.2 C

2.1 C

0 W/m

0.00 mm

06:40

2.2 C

991.2 hpa

83 %

6.4 km/h aus 117

14.5 km/h aus ESE

-0.4 C

0.2 C

0.3 C

2.1 C

0 W/m

0.00 mm

06:45

2.2 C

991.2 hpa

83 %

6.4 km/h aus 117

14.5 km/h aus ESE

-0.4 C

0.2 C

0.3 C

2.1 C

0 W/m

0.00 mm

06:50

2.2 C

991.2 hpa

83 %

6.4 km/h aus 116

16.1 km/h aus ESE

-0.4 C

0.2 C

0.3 C

2.1 C

0 W/m

0.00 mm

06:55

2.2 C

991.2 hpa

83 %

8.0 km/h aus 117

16.1 km/h aus ESE

-0.4 C

-0.2 C

-0.1 C

2.1 C

0 W/m

0.00 mm

07:00

2.3 C

991.2 hpa

83 %

8.0 km/h aus 117

17.7 km/h aus ESE

-0.3 C

-0.2 C

-0.1 C

2.2 C

0 W/m

0.00 mm

07:05

2.3 C

991.2 hpa

83 %

6.4 km/h aus 117

11.3 km/h aus SE

-0.3 C

0.4 C

0.5 C

2.2 C

0 W/m

0.00 mm

07:10

2.3 C

991.2 hpa

82 %

6.4 km/h aus 117

14.5 km/h aus E

-0.4 C

0.3 C

0.5 C

2.2 C

0 W/m

0.00 mm

07:15

2.4 C

991.4 hpa

82 %

8.0 km/h aus 117

11.3 km/h aus ESE

-0.4 C

-0.1 C

0.1 C

2.2 C

0 W/m

0.00 mm

07:20

2.3 C

991.4 hpa

83 %

6.4 km/h aus 115

11.3 km/h aus ESE

-0.3 C

0.4 C

0.5 C

2.2 C

0 W/m

0.00 mm

07:25

2.4 C

991.4 hpa

83 %

9.7 km/h aus 117

17.7 km/h aus ESE

-0.2 C

-0.4 C

-0.3 C

2.3 C

0 W/m

0.00 mm

07:30

2.4 C

991.7 hpa

82 %

4.8 km/h aus 116

9.7 km/h aus ESE

-0.4 C

1.1 C

1.2 C

2.2 C

0 W/m

0.00 mm

07:35

2.3 C

991.7 hpa

83 %

4.8 km/h aus 117

6.4 km/h aus ESE

-0.3 C

1.1 C

1.2 C

2.2 C

0 W/m

0.00 mm

07:40

2.2 C

991.7 hpa

83 %

3.2 km/h aus 117

6.4 km/h aus ESE

-0.4 C

1.8 C

1.9 C

2.1 C

0 W/m

0.00 mm

07:45

2.2 C

991.7 hpa

84 %

3.2 km/h aus 116

6.4 km/h aus ESE

-0.3 C

1.7 C

1.8 C

2.1 C

0 W/m

0.00 mm

07:50

2.1 C

991.7 hpa

85 %

3.2 km/h aus 117

6.4 km/h aus ESE

-0.2 C

1.6 C

1.7 C

1.9 C

0 W/m

0.00 mm

07:55

2.1 C

991.7 hpa

86 %

3.2 km/h aus 116

6.4 km/h aus ESE

0.0 C

1.6 C

1.7 C

1.9 C

0 W/m

0.00 mm

08:00

2.1 C

991.7 hpa

86 %

3.2 km/h aus 118

6.4 km/h aus ESE

0.0 C

1.6 C

1.7 C

2.0 C

0 W/m

0.00 mm

08:05

2.1 C

991.7 hpa

86 %

3.2 km/h aus 117

4.8 km/h aus ESE

0.0 C

1.6 C

1.7 C

2.0 C

0 W/m

0.00 mm

08:10

2.1 C

991.7 hpa

86 %

4.8 km/h aus 117

8.0 km/h aus ESE

0.0 C

0.8 C

0.9 C

2.0 C

0 W/m

0.00 mm

08:15

2.1 C

992.0 hpa

87 %

3.2 km/h aus 116

6.4 km/h aus ESE

0.1 C

1.6 C

1.7 C

1.9 C

0 W/m

0.00 mm

08:20

2.1 C

992.0 hpa

88 %

3.2 km/h aus 116

6.4 km/h aus ESE

0.3 C

1.6 C

1.7 C

2.0 C

0 W/m

0.00 mm

08:25

2.1 C

992.0 hpa

88 %

3.2 km/h aus 117

6.4 km/h aus ESE

0.3 C

1.6 C

1.7 C

2.0 C

0 W/m

0.00 mm

08:30

2.1 C

992.2 hpa

88 %

3.2 km/h aus 116

6.4 km/h aus ESE

0.3 C

1.6 C

1.7 C

2.0 C

0 W/m

0.00 mm

08:35

2.1 C

992.2 hpa

89 %

3.2 km/h aus 117

6.4 km/h aus ESE

0.4 C

1.6 C

1.7 C

2.0 C

0 W/m

0.00 mm

08:40

2.1 C

992.2 hpa

89 %

3.2 km/h aus 117

4.8 km/h aus ESE

0.4 C

1.6 C

1.7 C

2.0 C

0 W/m

0.00 mm

08:45

2.1 C

992.2 hpa

90 %

3.2 km/h aus 117

4.8 km/h aus ESE

0.6 C

1.6 C

1.7 C

2.0 C

0 W/m

0.00 mm

08:50

2.1 C

992.2 hpa

90 %

3.2 km/h aus 116

6.4 km/h aus ESE

0.6 C

1.6 C

1.7 C

2.0 C

0 W/m

0.00 mm

08:55

2.1 C

992.2 hpa

90 %

3.2 km/h aus 117

6.4 km/h aus ESE

0.6 C

1.6 C

1.7 C

2.0 C

0 W/m

0.00 mm

09:00

2.1 C

992.5 hpa

90 %

3.2 km/h aus 116

4.8 km/h aus ESE

0.6 C

1.6 C

1.7 C

2.0 C

0 W/m

0.00 mm

09:05

1.9 C

992.5 hpa

90 %

0.0 km/h aus 118

3.2 km/h aus ESE

0.5 C

1.9 C

1.9 C

1.9 C

0 W/m

0.00 mm

09:10

2.0 C

992.5 hpa

91 %

3.2 km/h aus 117

6.4 km/h aus ESE

0.7 C

1.6 C

1.6 C

1.9 C

0 W/m

0.00 mm

09:15

2.1 C

992.5 hpa

91 %

1.6 km/h aus 117

4.8 km/h aus ESE

0.7 C

2.0 C

2.1 C

2.0 C

0 W/m

0.00 mm

09:20

2.1 C

992.5 hpa

91 %

3.2 km/h aus 117

6.4 km/h aus ESE

0.7 C

1.6 C

1.7 C

2.0 C

0 W/m

0.00 mm

09:25

2.1 C

992.5 hpa

91 %

3.2 km/h aus 117

6.4 km/h aus ESE

0.7 C

1.6 C

1.7 C

2.0 C

0 W/m

0.00 mm

09:30

2.1 C

992.6 hpa

91 %

3.2 km/h aus 117

8.0 km/h aus E

0.7 C

1.6 C

1.7 C

2.0 C

0 W/m

0.00 mm

09:35

2.1 C

992.6 hpa

91 %

3.2 km/h aus 116

8.0 km/h aus E

0.7 C

1.6 C

1.7 C

2.0 C

0 W/m

0.25 mm

09:40

2.1 C

992.6 hpa

92 %

4.8 km/h aus 117

8.0 km/h aus ENE

0.9 C

0.8 C

0.9 C

2.1 C

0 W/m

0.00 mm

09:45

2.2 C

992.7 hpa

92 %

3.2 km/h aus 117

8.0 km/h aus ENE

1.0 C

1.8 C

1.8 C

2.1 C

0 W/m

0.00 mm

09:50

2.3 C

992.7 hpa

92 %

4.8 km/h aus 117

9.7 km/h aus ENE

1.1 C

1.1 C

1.1 C

2.2 C

0 W/m

0.00 mm

09:55

2.3 C

992.7 hpa

92 %

4.8 km/h aus 116

9.7 km/h aus NE

1.1 C

1.1 C

1.1 C

2.2 C

0 W/m

0.00 mm

10:00

2.3 C

992.7 hpa

92 %

4.8 km/h aus 116

9.7 km/h aus NE

1.2 C

1.1 C

1.2 C

2.3 C

0 W/m

0.00 mm

10:05

2.4 C

992.7 hpa

92 %

4.8 km/h aus 117

8.0 km/h aus NE

1.3 C

1.2 C

1.3 C

2.4 C

0 W/m

0.00 mm

10:10

2.5 C

992.7 hpa

92 %

3.2 km/h aus 117

6.4 km/h aus NE

1.3 C

2.1 C

2.2 C

2.4 C

0 W/m

0.00 mm

10:15

2.6 C

992.7 hpa

92 %

1.6 km/h aus 115

6.4 km/h aus NE

1.4 C

2.6 C

2.6 C

2.6 C

0 W/m

0.00 mm

10:20

2.7 C

992.7 hpa

92 %

1.6 km/h aus 114

3.2 km/h aus NE

1.5 C

2.6 C

2.7 C

2.6 C

0 W/m

0.00 mm

10:25

2.6 C

992.7 hpa

92 %

3.2 km/h aus 115

8.0 km/h aus NE

1.4 C

2.2 C

2.2 C

2.5 C

0 W/m

0.00 mm

10:30

2.6 C

992.9 hpa

92 %

3.2 km/h aus 117

9.7 km/h aus ESE

1.4 C

2.2 C

2.2 C

2.5 C

0 W/m

0.00 mm

10:35

2.8 C

992.9 hpa

93 %

6.4 km/h aus 117

11.3 km/h aus SE

1.8 C

1.1 C

1.1 C

2.8 C

0 W/m

0.00 mm

10:40

2.9 C

992.9 hpa

93 %

11.3 km/h aus 116

17.7 km/h aus SSE

1.9 C

-0.1 C

-0.1 C

2.9 C

0 W/m

0.00 mm

10:45

3.0 C

993.0 hpa

92 %

14.5 km/h aus 117

22.5 km/h aus S

1.8 C

-0.7 C

-0.6 C

2.9 C

0 W/m

0.00 mm

10:50

2.9 C

993.0 hpa

92 %

17.7 km/h aus 117

20.9 km/h aus S

1.8 C

-1.2 C

-1.2 C

2.9 C

0 W/m

0.00 mm

10:55

2.8 C

993.0 hpa

92 %

17.7 km/h aus 117

20.9 km/h aus S

1.7 C

-1.4 C

-1.3 C

2.8 C

0 W/m

0.00 mm

11:00

2.8 C

993.2 hpa

92 %

17.7 km/h aus 117

22.5 km/h aus S

1.7 C

-1.4 C

-1.3 C

2.8 C

0 W/m

0.00 mm

11:05

2.9 C

993.2 hpa

92 %

17.7 km/h aus 117

20.9 km/h aus S

1.7 C

-1.3 C

-1.3 C

2.8 C

0 W/m

0.00 mm

11:10

3.0 C

993.2 hpa

92 %

17.7 km/h aus 118

22.5 km/h aus S

1.8 C

-1.2 C

-1.1 C

2.9 C

0 W/m

0.00 mm

11:15

3.1 C

993.3 hpa

92 %

17.7 km/h aus 117

22.5 km/h aus S

1.9 C

-1.1 C

-1.1 C

3.0 C

0 W/m

0.00 mm

11:20

3.1 C

993.3 hpa

92 %

16.1 km/h aus 117

22.5 km/h aus S

1.9 C

-0.9 C

-0.8 C

3.0 C

0 W/m

0.00 mm

11:25

3.1 C

993.3 hpa

92 %

12.9 km/h aus 117

20.9 km/h aus S

1.9 C

-0.2 C

-0.2 C

3.1 C

0 W/m

0.00 mm

11:30

3.2 C

993.5 hpa

92 %

12.9 km/h aus 117

20.9 km/h aus S

2.0 C

-0.1 C

-0.1 C

3.2 C

0 W/m

0.00 mm

11:35

3.3 C

993.5 hpa

92 %

9.7 km/h aus 117

17.7 km/h aus S

2.1 C

0.7 C

0.7 C

3.2 C

0 W/m

0.00 mm

11:40

3.2 C

993.5 hpa

92 %

9.7 km/h aus 117

14.5 km/h aus S

2.0 C

0.6 C

0.6 C

3.2 C

0 W/m

0.00 mm

11:45

3.2 C

993.8 hpa

92 %

9.7 km/h aus 117

16.1 km/h aus SSW

2.0 C

0.6 C

0.6 C

3.2 C

0 W/m

0.00 mm

11:50

3.3 C

993.8 hpa

93 %

4.8 km/h aus 117

11.3 km/h aus SSW

2.3 C

2.3 C

2.3 C

3.3 C

0 W/m

0.00 mm

11:55

3.4 C

993.8 hpa

93 %

12.9 km/h aus 117

20.9 km/h aus SSW

2.4 C

0.2 C

0.2 C

3.4 C

0 W/m

0.00 mm

12:00

3.6 C

993.8 hpa

93 %

14.5 km/h aus 116

19.3 km/h aus SSW

2.6 C

0.1 C

0.1 C

3.6 C

0 W/m

0.00 mm

12:05

3.6 C

993.8 hpa

92 %

19.3 km/h aus 115

25.7 km/h aus S

2.4 C

-0.7 C

-0.7 C

3.5 C

0 W/m

0.00 mm

12:10

3.3 C

993.8 hpa

92 %

20.9 km/h aus 116

27.4 km/h aus S

2.2 C

-1.2 C

-1.1 C

3.3 C

0 W/m

0.00 mm

12:15

3.3 C

993.7 hpa

93 %

20.9 km/h aus 118

27.4 km/h aus S

2.3 C

-1.1 C

-1.1 C

3.3 C

0 W/m

0.00 mm

12:20

3.5 C

993.7 hpa

93 %

17.7 km/h aus 117

27.4 km/h aus SW

2.5 C

-0.5 C

-0.5 C

3.5 C

0 W/m

0.00 mm

12:25

3.7 C

993.7 hpa

93 %

16.1 km/h aus 117

24.1 km/h aus SSW

2.6 C

-0.1 C

-0.1 C

3.7 C

0 W/m

0.00 mm

12:30

3.8 C

993.8 hpa

92 %

14.5 km/h aus 115

24.1 km/h aus WSW

2.7 C

0.3 C

0.4 C

3.8 C

0 W/m

0.00 mm

12:35

3.9 C

993.8 hpa

92 %

14.5 km/h aus 117

24.1 km/h aus S

2.7 C

0.4 C

0.5 C

3.8 C

0 W/m

0.00 mm

12:40

3.9 C

993.8 hpa

92 %

14.5 km/h aus 115

25.7 km/h aus S

2.8 C

0.5 C

0.6 C

3.9 C

0 W/m

0.00 mm

12:45

3.9 C

993.9 hpa

92 %

14.5 km/h aus 116

20.9 km/h aus S

2.8 C

0.5 C

0.6 C

3.9 C

0 W/m

0.00 mm

12:50

4.0 C

993.9 hpa

91 %

14.5 km/h aus 117

24.1 km/h aus SW

2.7 C

0.6 C

0.6 C

3.9 C

0 W/m

0.00 mm

12:55

4.0 C

993.9 hpa

92 %

9.7 km/h aus 117

22.5 km/h aus SW

2.8 C

1.5 C

1.6 C

3.9 C

0 W/m

0.00 mm

13:00

4.0 C

994.0 hpa

91 %

17.7 km/h aus 116

24.1 km/h aus SSW

2.7 C

0.1 C

0.1 C

3.9 C

0 W/m

0.00 mm

13:05

3.9 C

994.0 hpa

91 %

16.1 km/h aus 117

29.0 km/h aus SSW

2.6 C

0.2 C

0.3 C

3.9 C

0 W/m

0.00 mm

13:10

3.9 C

994.0 hpa

91 %

16.1 km/h aus 117

25.7 km/h aus S

2.6 C

0.2 C

0.2 C

3.8 C

0 W/m

0.00 mm

13:15

3.8 C

993.9 hpa

91 %

14.5 km/h aus 115

27.4 km/h aus S

2.5 C

0.3 C

0.4 C

3.8 C

0 W/m

0.00 mm

13:20

3.8 C

993.9 hpa

91 %

14.5 km/h aus 117

25.7 km/h aus SSW

2.4 C

0.3 C

0.3 C

3.7 C

0 W/m

0.00 mm

13:25

3.8 C

993.9 hpa

92 %

16.1 km/h aus 116

29.0 km/h aus SSW

2.7 C

0.1 C

0.2 C

3.8 C

0 W/m

0.00 mm

13:30

3.9 C

994.2 hpa

91 %

12.9 km/h aus 116

20.9 km/h aus SSW

2.6 C

0.7 C

0.8 C

3.8 C

0 W/m

0.00 mm

13:35

3.9 C

994.2 hpa

91 %

12.9 km/h aus 117

25.7 km/h aus SW

2.6 C

0.8 C

0.8 C

3.9 C

0 W/m

0.00 mm

13:40

3.9 C

994.2 hpa

91 %

14.5 km/h aus 117

24.1 km/h aus SSW

2.6 C

0.5 C

0.6 C

3.9 C

0 W/m

0.00 mm

13:45

3.9 C

994.3 hpa

91 %

11.3 km/h aus 117

22.5 km/h aus SSW

2.6 C

1.1 C

1.2 C

3.9 C

0 W/m

0.00 mm

13:50

3.9 C

994.3 hpa

91 %

11.3 km/h aus 117

20.9 km/h aus SSW

2.6 C

1.1 C

1.2 C

3.9 C

0 W/m

0.00 mm

13:55

3.9 C

994.3 hpa

91 %

12.9 km/h aus 116

24.1 km/h aus SSW

2.6 C

0.7 C

0.8 C

3.8 C

0 W/m

0.00 mm

14:00

3.8 C

994.3 hpa

91 %

11.3 km/h aus 117

25.7 km/h aus SSW

2.5 C

0.9 C

1.0 C

3.8 C

0 W/m

0.00 mm

14:05

3.8 C

994.3 hpa

91 %

11.3 km/h aus 117

19.3 km/h aus SW

2.5 C

0.9 C

1.0 C

3.8 C

0 W/m

0.00 mm

14:10

3.9 C

994.3 hpa

91 %

12.9 km/h aus 116

24.1 km/h aus SSW

2.6 C

0.7 C

0.8 C

3.8 C

0 W/m

0.00 mm

14:15

3.9 C

994.3 hpa

91 %

11.3 km/h aus 116

25.7 km/h aus SW

2.6 C

1.0 C

1.1 C

3.8 C

0 W/m

0.00 mm

14:20

3.9 C

994.3 hpa

91 %

9.7 km/h aus 116

20.9 km/h aus SSW

2.6 C

1.4 C

1.5 C

3.9 C

0 W/m

0.00 mm

14:25

3.9 C

994.3 hpa

91 %

9.7 km/h aus 118

24.1 km/h aus SW

2.6 C

1.4 C

1.5 C

3.9 C

0 W/m

0.00 mm

14:30

3.9 C

994.5 hpa

91 %

9.7 km/h aus 116

19.3 km/h aus SW

2.6 C

1.4 C

1.5 C

3.9 C

0 W/m

0.00 mm

14:35

3.9 C

994.5 hpa

91 %

9.7 km/h aus 116

17.7 km/h aus SSW

2.6 C

1.4 C

1.5 C

3.9 C

0 W/m

0.00 mm

14:40

4.0 C

994.5 hpa

90 %

11.3 km/h aus 117

19.3 km/h aus SW

2.5 C

1.2 C

1.2 C

3.9 C

0 W/m

0.00 mm

14:45

4.0 C

994.6 hpa

90 %

8.0 km/h aus 117

17.7 km/h aus SW

2.5 C

1.9 C

1.9 C

3.9 C

0 W/m

0.00 mm

14:50

4.0 C

994.6 hpa

90 %

8.0 km/h aus 117

17.7 km/h aus SSW

2.5 C

1.9 C

1.9 C

3.9 C

0 W/m

0.00 mm

14:55

3.9 C

994.6 hpa

89 %

11.3 km/h aus 117

19.3 km/h aus WSW

2.3 C

1.1 C

1.2 C

3.9 C

0 W/m

0.00 mm

15:00

3.9 C

994.7 hpa

90 %

11.3 km/h aus 117

22.5 km/h aus WSW

2.4 C

1.0 C

1.1 C

3.8 C

0 W/m

0.00 mm

15:05

3.8 C

994.7 hpa

90 %

9.7 km/h aus 117

19.3 km/h aus SW

2.3 C

1.3 C

1.3 C

3.8 C

0 W/m

0.00 mm

15:10

3.8 C

994.7 hpa

90 %

8.0 km/h aus 116

17.7 km/h aus SSW

2.3 C

1.7 C

1.7 C

3.7 C

0 W/m

0.00 mm

15:15

3.8 C

994.8 hpa

90 %

9.7 km/h aus 116

17.7 km/h aus SSW

2.3 C

1.2 C

1.3 C

3.7 C

0 W/m

0.00 mm

15:20

3.7 C

994.8 hpa

90 %

8.0 km/h aus 116

16.1 km/h aus WSW

2.2 C

1.6 C

1.6 C

3.7 C

0 W/m

0.00 mm

15:25

3.7 C

994.8 hpa

90 %

4.8 km/h aus 117

11.3 km/h aus WSW

2.2 C

2.7 C

2.7 C

3.7 C

0 W/m

0.00 mm

15:30

3.7 C

994.8 hpa

90 %

6.4 km/h aus 117

16.1 km/h aus WSW

2.2 C

2.0 C

2.1 C

3.6 C

0 W/m

0.00 mm

15:35

3.7 C

994.8 hpa

90 %

11.3 km/h aus 117

20.9 km/h aus SW

2.2 C

0.8 C

0.8 C

3.6 C

0 W/m

0.00 mm

15:40

3.6 C

994.8 hpa

90 %

9.7 km/h aus 117

19.3 km/h aus SW

2.1 C

1.1 C

1.1 C

3.6 C

0 W/m

0.00 mm

15:45

3.6 C

994.8 hpa

90 %

8.0 km/h aus 117

17.7 km/h aus SSW

2.1 C

1.4 C

1.4 C

3.5 C

0 W/m

0.00 mm

15:50

3.6 C

994.8 hpa

90 %

11.3 km/h aus 116

20.9 km/h aus SSW

2.1 C

0.6 C

0.7 C

3.5 C

0 W/m

0.00 mm

15:55

3.6 C

994.8 hpa

90 %

11.3 km/h aus 116

19.3 km/h aus SW

2.1 C

0.6 C

0.7 C

3.5 C

0 W/m

0.00 mm

16:00

3.6 C

994.8 hpa

90 %

11.3 km/h aus 116

20.9 km/h aus WSW

2.1 C

0.6 C

0.7 C

3.5 C

0 W/m

0.00 mm

16:05

3.6 C

994.8 hpa

89 %

12.9 km/h aus 117

24.1 km/h aus SW

1.9 C

0.3 C

0.3 C

3.5 C

0 W/m

0.00 mm

16:10

3.6 C

994.8 hpa

89 %

8.0 km/h aus 117

16.1 km/h aus WSW

2.0 C

1.4 C

1.5 C

3.6 C

0 W/m

0.00 mm

16:15

3.6 C

994.8 hpa

89 %

6.4 km/h aus 117

11.3 km/h aus SW

2.0 C

1.9 C

2.0 C

3.6 C

0 W/m

0.00 mm

16:20

3.6 C

994.8 hpa

89 %

8.0 km/h aus 117

17.7 km/h aus SW

2.0 C

1.4 C

1.5 C

3.6 C

0 W/m

0.00 mm

16:25

3.6 C

994.8 hpa

89 %

6.4 km/h aus 117

11.3 km/h aus SSW

2.0 C

1.9 C

2.0 C

3.6 C

0 W/m

0.00 mm

16:30

3.7 C

994.8 hpa

88 %

4.8 km/h aus 117

9.7 km/h aus SSW

1.9 C

2.6 C

2.7 C

3.6 C

0 W/m

0.00 mm

16:35

3.7 C

994.8 hpa

88 %

4.8 km/h aus 116

9.7 km/h aus SSW

1.9 C

2.6 C

2.7 C

3.6 C

0 W/m

0.00 mm

16:40

3.7 C

994.8 hpa

88 %

6.4 km/h aus 117

12.9 km/h aus SW

1.9 C

2.1 C

2.1 C

3.7 C

0 W/m

0.00 mm

16:45

3.8 C

994.8 hpa

92 %

4.8 km/h aus 117

11.3 km/h aus SW

2.6 C

2.7 C

2.8 C

3.7 C

0 W/m

0.00 mm

16:50

3.9 C

994.8 hpa

87 %

4.8 km/h aus 117

11.3 km/h aus SW

1.9 C

2.8 C

2.9 C

3.8 C

0 W/m

0.00 mm

16:55

3.9 C

994.8 hpa

86 %

3.2 km/h aus 116

8.0 km/h aus SW

1.8 C

3.6 C

3.7 C

3.8 C

0 W/m

0.00 mm

17:00

3.8 C

994.8 hpa

86 %

6.4 km/h aus 117

12.9 km/h aus SW

1.7 C

2.1 C

2.2 C

3.7 C

0 W/m

0.00 mm

17:05

3.8 C

994.8 hpa

86 %

4.8 km/h aus 117

9.7 km/h aus SW

1.7 C

2.7 C

2.8 C

3.7 C

0 W/m

0.00 mm

17:10

3.8 C

994.8 hpa

86 %

1.6 km/h aus 115

4.8 km/h aus SW

1.7 C

3.7 C

3.8 C

3.7 C

0 W/m

0.00 mm

17:15

3.8 C

994.9 hpa

86 %

1.6 km/h aus 117

4.8 km/h aus SW

1.7 C

3.7 C

3.8 C

3.7 C

0 W/m

0.00 mm

17:20

3.7 C

994.9 hpa

85 %

0.0 km/h aus 117

3.2 km/h aus SW

1.4 C

3.6 C

3.7 C

3.6 C

0 W/m

0.00 mm

17:25

3.7 C

994.9 hpa

85 %

0.0 km/h aus 117

1.6 km/h aus SW

1.4 C

3.6 C

3.7 C

3.6 C

0 W/m

0.00 mm

17:30

3.6 C

994.9 hpa

85 %

0.0 km/h aus 115

1.6 km/h aus SW

1.3 C

3.4 C

3.6 C

3.4 C

0 W/m

0.00 mm

17:35

3.3 C

994.9 hpa

84 %

0.0 km/h aus 118

3.2 km/h aus SW

0.9 C

3.2 C

3.3 C

3.2 C

0 W/m

0.00 mm

17:40

3.2 C

994.9 hpa

83 %

0.0 km/h aus 116

0.0 km/h aus ---

0.6 C

3.1 C

3.2 C

3.1 C

0 W/m

0.00 mm

17:45

3.0 C

995.1 hpa

83 %

0.0 km/h aus 117

0.0 km/h aus ---

0.4 C

2.9 C

3.0 C

2.9 C

0 W/m

0.00 mm

17:50

2.8 C

995.1 hpa

83 %

0.0 km/h aus 117

0.0 km/h aus ---

0.2 C

2.7 C

2.8 C

2.7 C

0 W/m

0.00 mm

17:55

2.6 C

995.1 hpa

83 %

0.0 km/h aus 116

0.0 km/h aus ---

0.0 C

2.5 C

2.6 C

2.5 C

0 W/m

0.00 mm

18:00

2.5 C

995.2 hpa

83 %

0.0 km/h aus 116

0.0 km/h aus ---

-0.1 C

2.4 C

2.5 C

2.4 C

0 W/m

0.00 mm

18:05

2.3 C

995.2 hpa

83 %

0.0 km/h aus 117

0.0 km/h aus ---

-0.3 C

2.2 C

2.3 C

2.2 C

0 W/m

0.00 mm

18:10

2.1 C

995.2 hpa

83 %

0.0 km/h aus 116

0.0 km/h aus ---

-0.5 C

2.0 C

2.1 C

2.0 C

0 W/m

0.00 mm

18:15

1.8 C

995.3 hpa

83 %

0.0 km/h aus 114

1.6 km/h aus SW

-0.7 C

1.7 C

1.8 C

1.7 C

0 W/m

0.00 mm

18:20

1.6 C

995.3 hpa

83 %

0.0 km/h aus 117

3.2 km/h aus SW

-1.0 C

1.5 C

1.6 C

1.5 C

0 W/m

0.00 mm

18:25

1.3 C

995.3 hpa

83 %

0.0 km/h aus 116

3.2 km/h aus SW

-1.2 C

1.2 C

1.3 C

1.2 C

0 W/m

0.00 mm

18:30

1.2 C

995.3 hpa

84 %

0.0 km/h aus 115

1.6 km/h aus SW

-1.2 C

1.1 C

1.2 C

1.1 C

0 W/m

0.00 mm

18:35

1.1 C

995.3 hpa

84 %

1.6 km/h aus 117

3.2 km/h aus SW

-1.3 C

0.9 C

1.1 C

0.9 C

0 W/m

0.00 mm

18:40

0.9 C

995.3 hpa

84 %

1.6 km/h aus 118

3.2 km/h aus SW

-1.5 C

0.7 C

0.9 C

0.7 C

0 W/m

0.00 mm

18:45

0.8 C

995.3 hpa

85 %

1.6 km/h aus 117

3.2 km/h aus SW

-1.4 C

0.7 C

0.8 C

0.7 C

0 W/m

0.00 mm

18:50

0.7 C

995.3 hpa

85 %

0.0 km/h aus 117

1.6 km/h aus SW

-1.5 C

0.6 C

0.7 C

0.6 C

0 W/m

0.00 mm

18:55

0.6 C

995.3 hpa

85 %

1.6 km/h aus 117

3.2 km/h aus SW

-1.6 C

0.5 C

0.6 C

0.5 C

0 W/m

0.00 mm

19:00

0.6 C

995.3 hpa

85 %

1.6 km/h aus 115

4.8 km/h aus SW

-1.7 C

0.4 C

0.6 C

0.4 C

0 W/m

0.00 mm

19:05

0.4 C

995.3 hpa

86 %

3.2 km/h aus 117

4.8 km/h aus SW

-1.7 C

-0.3 C

-0.2 C

0.3 C

0 W/m

0.00 mm

19:10

0.3 C

995.3 hpa

86 %

1.6 km/h aus 117

4.8 km/h aus SW

-1.7 C

0.2 C

0.3 C

0.2 C

0 W/m

0.00 mm

19:15

0.2 C

995.3 hpa

86 %

0.0 km/h aus 116

1.6 km/h aus SW

-1.8 C

0.1 C

0.2 C

0.1 C

0 W/m

0.00 mm

19:20

0.2 C

995.3 hpa

86 %

0.0 km/h aus 117

0.0 km/h aus ---

-1.9 C

0.1 C

0.2 C

0.1 C

0 W/m

0.00 mm

19:25

0.1 C

995.3 hpa

86 %

0.0 km/h aus 117

1.6 km/h aus SW

-2.0 C

-0.1 C

0.1 C

-0.1 C

0 W/m

0.00 mm

19:30

0.0 C

995.4 hpa

86 %

0.0 km/h aus 116

0.0 km/h aus ---

-2.1 C

-0.1 C

0.0 C

-0.1 C

0 W/m

0.00 mm

19:35

-0.1 C

995.4 hpa

86 %

1.6 km/h aus 117

3.2 km/h aus SW

-2.2 C

-0.2 C

-0.1 C

-0.2 C

0 W/m

0.00 mm

19:40

-0.2 C

995.4 hpa

87 %

1.6 km/h aus 116

3.2 km/h aus SW

-2.1 C

-0.3 C

-0.2 C

-0.3 C

0 W/m

0.00 mm

19:45

-0.3 C

995.4 hpa

87 %

0.0 km/h aus 118

3.2 km/h aus SW

-2.2 C

-0.4 C

-0.3 C

-0.4 C

0 W/m

0.00 mm

19:50

-0.3 C

995.4 hpa

87 %

0.0 km/h aus 117

3.2 km/h aus SW

-2.2 C

-0.4 C

-0.3 C

-0.4 C

0 W/m

0.00 mm

19:55

-0.4 C

995.4 hpa

87 %

0.0 km/h aus 117

0.0 km/h aus ---

-2.3 C

-0.5 C

-0.4 C

-0.5 C

0 W/m

0.00 mm

20:00

-0.4 C

995.4 hpa

87 %

0.0 km/h aus 117

1.6 km/h aus SW

-2.3 C

-0.6 C

-0.4 C

-0.6 C

0 W/m

0.00 mm

20:05

-0.5 C

995.4 hpa

87 %

0.0 km/h aus 117

3.2 km/h aus SW

-2.4 C

-0.6 C

-0.5 C

-0.6 C

0 W/m

0.00 mm

20:10

-0.6 C

995.4 hpa

87 %

0.0 km/h aus 117

3.2 km/h aus SW

-2.5 C

-0.7 C

-0.6 C

-0.7 C

0 W/m

0.00 mm

20:15

-0.6 C

995.4 hpa

88 %

0.0 km/h aus 116

0.0 km/h aus ---

-2.3 C

-0.7 C

-0.6 C

-0.7 C

0 W/m

0.00 mm

20:20

-0.6 C

995.4 hpa

88 %

1.6 km/h aus 116

4.8 km/h aus SW

-2.3 C

-0.7 C

-0.6 C

-0.7 C

0 W/m

0.00 mm

20:25

-0.6 C

995.4 hpa

88 %

1.6 km/h aus 117

4.8 km/h aus SW

-2.3 C

-0.7 C

-0.6 C

-0.7 C

0 W/m

0.00 mm

20:30

-0.6 C

995.4 hpa

88 %

0.0 km/h aus 116

3.2 km/h aus SW

-2.3 C

-0.7 C

-0.6 C

-0.7 C

0 W/m

0.00 mm

20:35

-0.6 C

995.4 hpa

88 %

1.6 km/h aus 116

3.2 km/h aus SW

-2.3 C

-0.7 C

-0.6 C

-0.7 C

0 W/m

0.00 mm

20:40

-0.6 C

995.4 hpa

88 %

3.2 km/h aus 117

6.4 km/h aus SW

-2.3 C

-1.3 C

-1.2 C

-0.7 C

0 W/m

0.00 mm

20:45

-0.6 C

995.5 hpa

89 %

8.0 km/h aus 116

12.9 km/h aus SW

-2.1 C

-3.5 C

-3.4 C

-0.7 C

0 W/m

0.00 mm

20:50

-0.4 C

995.5 hpa

89 %

9.7 km/h aus 115

14.5 km/h aus S

-2.0 C

-3.8 C

-3.7 C

-0.5 C

0 W/m

0.00 mm

20:55

-0.2 C

995.5 hpa

90 %

8.0 km/h aus 117

16.1 km/h aus SSE

-1.6 C

-3.0 C

-2.9 C

-0.2 C

0 W/m

0.00 mm

21:00

0.2 C

995.5 hpa

91 %

9.7 km/h aus 117

16.1 km/h aus SSE

-1.1 C

-3.1 C

-3.0 C

0.1 C

0 W/m

0.00 mm

21:05

0.5 C

995.5 hpa

91 %

9.7 km/h aus 115

17.7 km/h aus SE

-0.8 C

-2.7 C

-2.6 C

0.4 C

0 W/m

0.00 mm

21:10

0.8 C

995.5 hpa

92 %

9.7 km/h aus 117

20.9 km/h aus SSE

-0.4 C

-2.4 C

-2.3 C

0.7 C

0 W/m

0.00 mm

21:15

1.0 C

995.3 hpa

92 %

11.3 km/h aus 116

19.3 km/h aus SE

-0.2 C

-2.5 C

-2.4 C

0.9 C

0 W/m

0.00 mm

21:20

1.2 C

995.3 hpa

92 %

11.3 km/h aus 116

20.9 km/h aus SE

0.0 C

-2.3 C

-2.2 C

1.1 C

0 W/m

0.00 mm

21:25

1.2 C

995.3 hpa

92 %

9.7 km/h aus 117

17.7 km/h aus SE

0.1 C

-1.8 C

-1.7 C

1.2 C

0 W/m

0.00 mm

21:30

1.3 C

995.2 hpa

92 %

9.7 km/h aus 116

17.7 km/h aus SE

0.1 C

-1.7 C

-1.7 C

1.2 C

0 W/m

0.00 mm

21:35

1.3 C

995.2 hpa

92 %

11.3 km/h aus 117

20.9 km/h aus SE

0.2 C

-2.1 C

-2.0 C

1.3 C

0 W/m

0.00 mm

21:40

1.3 C

995.2 hpa

92 %

11.3 km/h aus 117

19.3 km/h aus SE

0.2 C

-2.1 C

-2.0 C

1.3 C

0 W/m

0.00 mm

21:45

1.4 C

994.9 hpa

92 %

12.9 km/h aus 116

20.9 km/h aus ESE

0.3 C

-2.3 C

-2.2 C

1.4 C

0 W/m

0.00 mm

21:50

1.6 C

994.9 hpa

92 %

11.3 km/h aus 117

19.3 km/h aus ESE

0.4 C

-1.8 C

-1.7 C

1.5 C

0 W/m

0.00 mm

21:55

1.7 C

994.9 hpa

92 %

11.3 km/h aus 118

19.3 km/h aus ESE

0.5 C

-1.7 C

-1.6 C

1.6 C

0 W/m

0.00 mm

22:00

1.8 C

995.0 hpa

92 %

11.3 km/h aus 117

17.7 km/h aus ESE

0.6 C

-1.5 C

-1.4 C

1.7 C

0 W/m

0.00 mm

22:05

1.8 C

995.0 hpa

92 %

9.7 km/h aus 117

17.7 km/h aus SE

0.6 C

-1.2 C

-1.1 C

1.7 C

0 W/m

0.00 mm

22:10

1.8 C

995.0 hpa

92 %

9.7 km/h aus 117

16.1 km/h aus SSE

0.7 C

-1.1 C

-1.0 C

1.8 C

0 W/m

0.00 mm

22:15

1.9 C

994.9 hpa

92 %

8.0 km/h aus 117

16.1 km/h aus ESE

0.7 C

-0.6 C

-0.5 C

1.8 C

0 W/m

0.00 mm

22:20

1.9 C

994.9 hpa

91 %

8.0 km/h aus 116

17.7 km/h aus ESE

0.6 C

-0.5 C

-0.4 C

1.9 C

0 W/m

0.00 mm

22:25

1.9 C

994.9 hpa

92 %

9.7 km/h aus 116

16.1 km/h aus ESE

0.8 C

-0.9 C

-0.9 C

1.9 C

0 W/m

0.00 mm

22:30

2.0 C

994.9 hpa

91 %

8.0 km/h aus 117

14.5 km/h aus ESE

0.7 C

-0.4 C

-0.4 C

1.9 C

0 W/m

0.00 mm

22:35

2.0 C

994.9 hpa

91 %

8.0 km/h aus 117

16.1 km/h aus ESE

0.7 C

-0.4 C

-0.4 C

1.9 C

0 W/m

0.00 mm

22:40

2.0 C

994.9 hpa

91 %

9.7 km/h aus 117

17.7 km/h aus ESE

0.7 C

-0.9 C

-0.8 C

1.9 C

0 W/m

0.00 mm

22:45

2.0 C

994.9 hpa

91 %

9.7 km/h aus 116

16.1 km/h aus ESE

0.7 C

-0.9 C

-0.8 C

1.9 C

0 W/m

0.00 mm

22:50

2.1 C

994.9 hpa

91 %

8.0 km/h aus 117

19.3 km/h aus SE

0.7 C

-0.4 C

-0.3 C

2.0 C

0 W/m

0.00 mm

22:55

2.0 C

994.9 hpa

90 %

8.0 km/h aus 116

16.1 km/h aus SE

0.5 C

-0.4 C

-0.4 C

1.9 C

0 W/m

0.00 mm

23:00

2.1 C

994.8 hpa

90 %

8.0 km/h aus 118

12.9 km/h aus ESE

0.6 C

-0.4 C

-0.3 C

2.0 C

0 W/m

0.00 mm

23:05

2.0 C

994.8 hpa

90 %

6.4 km/h aus 117

12.9 km/h aus ESE

0.5 C

0.1 C

0.1 C

1.9 C

0 W/m

0.00 mm

23:10

2.0 C

994.8 hpa

90 %

9.7 km/h aus 117

16.1 km/h aus E

0.5 C

-0.9 C

-0.8 C

1.9 C

0 W/m

0.00 mm

23:15

2.0 C

994.8 hpa

90 %

8.0 km/h aus 115

14.5 km/h aus ESE

0.5 C

-0.4 C

-0.4 C

1.9 C

0 W/m

0.00 mm

23:20

2.1 C

994.8 hpa

90 %

8.0 km/h aus 117

16.1 km/h aus SE

0.6 C

-0.4 C

-0.3 C

2.0 C

0 W/m

0.00 mm

23:25

2.1 C

994.8 hpa

90 %

6.4 km/h aus 116

16.1 km/h aus E

0.6 C

0.2 C

0.3 C

2.1 C

0 W/m

0.00 mm

23:30

2.1 C

994.8 hpa

90 %

6.4 km/h aus 117

14.5 km/h aus ESE

0.6 C

0.2 C

0.3 C

2.1 C

0 W/m

0.00 mm

23:35

2.2 C

994.8 hpa

90 %

8.0 km/h aus 116

19.3 km/h aus SE

0.7 C

-0.2 C

-0.2 C

2.1 C

0 W/m

0.00 mm

23:40

2.2 C

994.8 hpa

89 %

6.4 km/h aus 117

16.1 km/h aus ESE

0.5 C

0.3 C

0.3 C

2.1 C

0 W/m

0.00 mm

23:45

2.2 C

994.7 hpa

89 %

8.0 km/h aus 117

16.1 km/h aus ESE

0.5 C

-0.2 C

-0.2 C

2.1 C

0 W/m

0.00 mm

23:50

2.2 C

994.7 hpa

89 %

9.7 km/h aus 116

19.3 km/h aus E

0.5 C

-0.7 C

-0.6 C

2.1 C

0 W/m

0.00 mm

23:55

2.2 C

994.7 hpa

89 %

9.7 km/h aus 117

17.7 km/h aus ESE

0.5 C

-0.7 C

-0.6 C

2.1 C

0 W/m

0.00 mm